Stations météo

réclame
Mon MeteoGroup
Kinloss, Grande-Bretagne (3066): Température de l'air & dewpoint: 11.07.2018 12:00:00 - 17.07.2018 12:00:00 (BST)Kinloss, Grande-Bretagne (3066): Température de l'air -20cm & Température de l'air -100cm: 11.07.2018 12:00:00 - 17.07.2018 12:00:00 (BST)Kinloss, Grande-Bretagne (3066): Vitesse du vent: 11.07.2018 12:00:00 - 17.07.2018 12:00:00 (BST)Kinloss, Grande-Bretagne (3066): Direction du vent: 11.07.2018 12:00:00 - 17.07.2018 12:00:00 (BST)Kinloss, Grande-Bretagne (3066): reduced air pressure: 11.07.2018 12:00:00 - 17.07.2018 12:00:00 (BST)Kinloss, Grande-Bretagne (3066): visibility: 11.07.2018 12:00:00 - 17.07.2018 12:00:00 (BST)Kinloss, Grande-Bretagne (3066): Ensoleillement: 11.07.2018 12:00:00 - 17.07.2018 12:00:00 (BST)Kinloss, Grande-Bretagne (3066): Quantités de précipitations: 11.07.2018 12:00:00 - 17.07.2018 12:00:00 (BST)
Date & Time tt [°C] td [°C] tt -20cm [°C] tt -100cm [°C] ff [km/h] ff [knt] dd ppp [hPa] vv [km] sd [min] rr [mm]
17.07.2018 12:00:00 18,9 10,2 - - 4 2 ESE 1011,6 55 30 0,0
17.07.2018 11:00:00 17,1 10,3 - - 5 3 WNW 1011,7 60 0 0,0
17.07.2018 10:00:00 16,8 10,2 16,0 13,5 16 9 SW 1011,7 65 54 0,0
17.07.2018 09:00:00 15,3 10,8 - - 9 5 SW 1011,8 55 6 0,0
17.07.2018 08:00:00 14,1 9,3 - - 9 5 SW 1011,5 60 0 0,0
17.07.2018 07:00:00 13,7 9,1 - - 8 4 SSW 1011,4 60 0 0,0
17.07.2018 06:00:00 11,3 8,8 - - 5 3 ESE 1011,4 55 0 0,0
17.07.2018 05:00:00 12,0 8,1 - - 8 4 SSW 1011,2 60 0 0,0
17.07.2018 04:00:00 11,4 8,7 - - 4 2 SW 1011,4 60 0 0,0
17.07.2018 03:00:00 10,8 8,2 - - 4 2 SSE 1011,6 60 0 0,0
17.07.2018 02:00:00 11,7 7,3 - - 4 2 SSE 1011,8 55 0 0,0
17.07.2018 01:00:00 13,5 8,2 - - 9 5 SSW 1011,7 65 - 0,0
17.07.2018 00:00:00 14,3 8,7 - - 8 4 SW 1011,9 65 0 0,0
16.07.2018 23:00:00 14,7 8,8 - - 9 5 SW 1011,7 60 0 0,0
16.07.2018 22:00:00 16,4 9,3 - - 8 4 SW 1011,5 65 0 0,0
16.07.2018 21:00:00 17,4 9,4 - - 11 6 WSW 1010,9 65 0 0,0
16.07.2018 20:00:00 18,4 9,1 - - 21 11 WSW 1010,7 65 12 0,0
16.07.2018 19:00:00 18,7 9,7 - - 21 11 WNW 1010,4 55 0 0,0
16.07.2018 18:00:00 18,9 10,0 - - 13 7 W 1010,3 60 0 0,0
16.07.2018 17:00:00 18,8 10,8 - - 5 3 NW 1010,4 60 0 0,0
16.07.2018 16:00:00 19,4 13,6 - - 5 3 NE 1010,3 40 0 0,0
16.07.2018 15:00:00 18,9 13,5 - - 11 6 ESE 1010,4 55 6 0,0
16.07.2018 14:00:00 18,9 11,9 - - 11 6 NE 1010,4 50 6 0,0
16.07.2018 13:00:00 18,5 11,9 - - 2 1 E 1010,6 50 0 0,0
16.07.2018 12:00:00 17,5 12,6 - - 4 2 W 1010,7 50 0 0,0
16.07.2018 11:00:00 16,6 13,0 - - 8 4 W 1010,6 55 0 0,0
16.07.2018 10:00:00 15,5 14,0 16,2 13,5 9 5 SW 1010,5 60 0 0,4
16.07.2018 09:00:00 15,8 13,5 - - 13 7 WSW 1010,3 60 0 0,0
16.07.2018 08:00:00 15,1 13,9 - - 11 6 WSW 1010,1 70 0 0,0
16.07.2018 07:00:00 14,4 13,8 - - 8 4 SSW 1009,7 55 0 0,4
16.07.2018 06:00:00 14,5 13,6 - - 11 6 WSW 1009,9 4,1 0 0,2
16.07.2018 05:00:00 17,0 15,5 - - 16 9 WSW 1009,3 25 0 0,0
16.07.2018 04:00:00 17,9 15,2 - - 8 4 S 1008,7 45 0 0,0
16.07.2018 03:00:00 18,2 15,0 - - 5 3 S 1008,9 45 0 0,0
16.07.2018 02:00:00 18,6 15,1 - - 9 5 SSW 1009,1 75 0 0,0
16.07.2018 01:00:00 18,0 15,3 - - 2 1 SE 1009,3 75 - 0,0
16.07.2018 00:00:00 17,7 15,8 - - 5 3 N 1009,5 70 0 0,0
15.07.2018 23:00:00 19,0 15,4 - - 9 5 S 1009,7 75 0 0,0
15.07.2018 22:00:00 19,3 16,1 - - 8 4 S 1009,9 75 0 0,0
15.07.2018 21:00:00 19,2 17,5 - - 2 1 NNW 1009,9 65 0 0,0
15.07.2018 20:00:00 19,7 17,1 - - 8 4 SSW 1009,9 60 0 0,2
15.07.2018 19:00:00 20,4 17,3 - - 9 5 SSW 1010,0 55 0 0,0
15.07.2018 18:00:00 19,7 18,4 - - 2 1 SE 1010,2 45 0 0,4
15.07.2018 17:00:00 18,2 16,9 - - 16 9 NW 1010,5 45 0 0,6
15.07.2018 16:00:00 20,6 17,6 - - 9 5 N 1010,5 60 0 0,0
15.07.2018 15:00:00 21,0 18,8 - - 4 2 SE 1010,7 60 0 0,2
15.07.2018 14:00:00 19,5 18,2 - - 9 5 W 1011,0 50 0 0,4
15.07.2018 13:00:00 20,2 16,1 - - 15 8 WNW 1010,9 24 0 0,0
15.07.2018 12:00:00 21,8 16,1 - - 13 7 SW 1011,1 75 0 0,0
15.07.2018 11:00:00 21,2 15,8 - - 15 8 SSW 1010,9 65 0 0,0
15.07.2018 10:00:00 20,2 15,6 16,0 13,4 11 6 SSW 1011,2 50 0 0,0
15.07.2018 09:00:00 20,0 15,8 - - 8 4 S 1011,0 65 0 0,0
15.07.2018 08:00:00 19,3 15,8 - - 9 5 SSW 1011,2 75 0 0,0
15.07.2018 07:00:00 18,7 15,4 - - 11 6 S 1011,1 65 0 0,0
15.07.2018 06:00:00 18,0 15,2 - - 11 6 S 1011,1 60 0 0,0
15.07.2018 05:00:00 17,2 15,3 - - 8 4 SSW 1010,9 28 0 0,0
15.07.2018 04:00:00 16,8 15,4 - - 4 2 NNW 1011,3 55 0 0,0
15.07.2018 03:00:00 16,8 15,4 - - 9 5 S 1011,5 30 0 0,8
15.07.2018 02:00:00 17,6 15,0 - - 13 7 SSW 1011,8 28 0 0,0
15.07.2018 01:00:00 18,8 13,9 - - 11 6 S 1012,0 55 - 0,0
15.07.2018 00:00:00 19,2 13,8 - - 13 7 SSW 1012,2 50 0 0,0
14.07.2018 23:00:00 19,5 13,5 - - 15 8 SSW 1012,5 55 0 0,0
14.07.2018 22:00:00 19,5 13,8 - - 9 5 SW 1012,6 55 0 0,0
14.07.2018 21:00:00 20,1 14,2 - - 13 7 SW 1012,4 60 0 0,0
14.07.2018 20:00:00 20,9 14,2 - - 13 7 WSW 1012,6 65 0 0,0
14.07.2018 19:00:00 21,2 14,0 - - 11 6 W 1012,5 55 12 0,0
14.07.2018 18:00:00 21,2 13,4 - - 18 10 W 1012,6 60 0 0,0
14.07.2018 17:00:00 22,1 13,2 - - 18 10 WSW 1012,7 65 0 0,0
14.07.2018 16:00:00 23,1 13,3 - - 24 13 W 1012,8 55 0 0,0
14.07.2018 15:00:00 22,8 12,8 - - 13 7 W 1013,2 55 6 0,0
14.07.2018 14:00:00 21,8 12,7 - - 24 13 WSW 1013,6 60 0 0,0
14.07.2018 13:00:00 21,8 12,2 - - 26 14 WSW 1013,8 55 0 0,0
14.07.2018 12:00:00 20,9 11,9 - - 24 13 WSW 1014,3 60 6 0,0
14.07.2018 11:00:00 20,9 11,9 - - 26 14 WSW 1014,6 55 36 0,0
14.07.2018 10:00:00 20,0 11,6 15,7 13,4 22 12 SW 1015,0 65 36 0,0
14.07.2018 09:00:00 18,3 11,6 - - 21 11 SSW 1015,3 55 6 0,0
14.07.2018 08:00:00 17,9 11,5 - - 18 10 SSW 1015,5 55 18 0,0
14.07.2018 07:00:00 15,4 10,4 - - 16 9 SSW 1015,8 65 0 0,0
14.07.2018 06:00:00 14,5 10,1 - - 13 7 SSW 1016,3 65 6 0,0
14.07.2018 05:00:00 13,7 9,9 - - 13 7 SSW 1016,7 60 0 0,0
14.07.2018 04:00:00 13,3 10,1 - - 16 9 SSW 1017,3 60 0 0,0
14.07.2018 03:00:00 13,5 10,2 - - 13 7 S 1017,6 55 0 0,0
14.07.2018 02:00:00 13,7 10,6 - - 9 5 SSW 1018,1 55 0 0,0
14.07.2018 01:00:00 14,3 11,2 - - 8 4 S 1018,4 60 - 0,0
14.07.2018 00:00:00 14,5 11,6 - - 9 5 SSW 1018,7 45 0 0,0
13.07.2018 23:00:00 15,9 12,2 - - 8 4 SSW 1018,8 55 0 0,0
13.07.2018 22:00:00 17,4 12,9 - - 4 2 W 1018,7 55 0 0,0
13.07.2018 21:00:00 20,0 12,4 - - 5 3 WSW 1018,5 60 60 0,0
13.07.2018 20:00:00 21,6 11,9 - - 4 2 NW 1018,5 55 60 0,0
13.07.2018 19:00:00 20,3 12,5 - - 8 4 N 1018,8 60 42 0,0
13.07.2018 18:00:00 21,6 12,9 - - 5 3 NE 1018,9 55 54 0,0
13.07.2018 17:00:00 20,7 13,3 - - 13 7 N 1019,3 50 24 0,0
13.07.2018 16:00:00 19,2 12,8 - - 9 5 N 1019,9 55 30 0,0
13.07.2018 15:00:00 18,3 12,8 - - 5 3 WNW 1020,4 55 0 0,0
13.07.2018 14:00:00 18,9 13,1 - - 9 5 NW 1020,6 45 36 0,0
13.07.2018 13:00:00 18,7 13,5 - - 8 4 WNW 1021,0 45 12 0,0
13.07.2018 12:00:00 16,5 13,1 - - 8 4 W 1021,5 50 0 0,0
13.07.2018 11:00:00 16,8 13,1 - - 8 4 W 1021,5 45 0 0,0
13.07.2018 10:00:00 16,2 12,7 15,7 13,4 5 3 WSW 1021,6 50 0 0,0
13.07.2018 09:00:00 15,8 12,6 - - 8 4 WSW 1021,9 50 0 0,0
13.07.2018 08:00:00 15,3 12,4 - - 2 1 SE 1021,9 50 0 0,0
13.07.2018 07:00:00 13,7 12,0 - - 4 2 SE 1022,0 45 0 0,0
13.07.2018 06:00:00 12,3 11,2 - - 5 3 ESE 1022,1 35 0 0,0
13.07.2018 05:00:00 11,6 10,4 - - 4 2 ENE 1022,4 40 0 0,0
13.07.2018 04:00:00 12,4 10,7 - - 5 3 E 1022,6 50 0 0,0
13.07.2018 03:00:00 12,7 10,8 - - 5 3 E 1022,8 50 0 0,0
13.07.2018 02:00:00 12,3 10,9 - - 5 3 E 1023,1 60 0 0,0
13.07.2018 01:00:00 12,8 10,5 - - 4 2 ENE 1023,3 45 - 0,0
13.07.2018 00:00:00 14,0 10,6 - - 11 6 E 1023,4 55 0 0,0
12.07.2018 23:00:00 14,2 10,7 - - 13 7 E 1023,8 60 0 0,0
12.07.2018 22:00:00 14,5 10,3 - - 11 6 E 1023,7 60 0 0,0
12.07.2018 21:00:00 15,0 10,6 - - 13 7 ENE 1023,6 60 18 0,0
12.07.2018 20:00:00 16,4 10,9 - - 15 8 ENE 1023,4 65 54 0,0
12.07.2018 19:00:00 16,6 11,4 - - 16 9 NE 1023,3 60 0 0,0
12.07.2018 18:00:00 17,1 11,6 - - 15 8 ENE 1023,4 55 30 0,0
12.07.2018 17:00:00 16,4 11,7 - - 18 10 NNE 1023,7 60 0 0,0
12.07.2018 16:00:00 17,0 11,3 - - 15 8 NNE 1024,0 65 6 0,0
12.07.2018 15:00:00 17,2 11,4 - - 15 8 NNE 1024,1 65 6 0,0
12.07.2018 14:00:00 16,6 12,3 - - 13 7 N 1024,3 55 0 0,0
12.07.2018 13:00:00 16,3 12,3 - - 13 7 N 1024,5 50 0 0,0
12.07.2018 12:00:00 16,4 12,2 - - 5 3 ENE 1024,5 50 - 0,0
12.07.2018 11:00:00 15,1 12,4 - - 9 5 NNE 1024,5 40 6 0,0
12.07.2018 10:00:00 14,3 12,2 15,5 13,2 8 4 NE 1024,6 45 0 0,0
12.07.2018 09:00:00 14,1 12,6 - - 5 3 E 1024,5 35 0 0,0
12.07.2018 08:00:00 13,0 12,5 - - 0 0 N 1024,5 45 0 0,8
12.07.2018 07:00:00 12,7 12,1 - - 5 3 ESE 1024,3 2,9 0 0,2
12.07.2018 06:00:00 12,7 12,0 - - 5 3 ESE 1024,2 7 0 0,0
12.07.2018 05:00:00 12,6 11,7 - - 5 3 E 1024,2 28 0 0,0
12.07.2018 04:00:00 12,8 12,2 - - 11 6 ENE 1024,3 40 0 0,0
12.07.2018 03:00:00 13,1 12,3 - - 9 5 NNE 1024,4 55 0 0,0
12.07.2018 02:00:00 13,0 12,7 - - 5 3 NNE 1024,6 40 0 0,6
12.07.2018 01:00:00 13,1 12,7 - - 0 0 N 1024,6 2,2 - 0,8
12.07.2018 00:00:00 13,2 12,8 - - 5 3 ESE 1024,7 9 0 0,6
11.07.2018 23:00:00 13,2 12,8 - - 4 2 SE 1024,7 17 0 0,2
11.07.2018 22:00:00 13,5 12,9 - - 9 5 E 1024,7 4,8 0 0,2
11.07.2018 21:00:00 14,3 12,7 - - 5 3 NNE 1024,5 45 0 0,0
11.07.2018 20:00:00 14,9 12,3 - - 5 3 N 1024,5 40 0 0,0
11.07.2018 19:00:00 15,2 12,4 - - 4 2 N 1024,5 50 0 0,0
11.07.2018 18:00:00 15,0 12,3 - - 4 2 N 1024,3 50 0 0,0
11.07.2018 17:00:00 15,2 12,5 - - 5 3 N 1024,4 45 0 0,0
11.07.2018 16:00:00 15,3 12,1 - - 8 4 NNE 1024,5 50 0 0,0
11.07.2018 15:00:00 14,8 13,0 - - 8 4 N 1024,6 45 0 0,0
11.07.2018 14:00:00 14,7 13,0 - - 9 5 N 1024,8 40 0 0,0
11.07.2018 13:00:00 15,0 13,7 - - 11 6 NNW 1024,8 40 0 0,0
11.07.2018 12:00:00 14,6 14,2 - - 8 4 N 1024,7 40 0 0,0

tt = Température de l'air
td = dewpoint
tt -20cm = Température de l'air -20cm
tt -100cm = Température de l'air -100cm
ff = Vitesse du vent
dd = Direction du vent
ppp = reduced air pressure
vv = visibility
sd = Ensoleillement
rr = Quantités de précipitations

stations d'obs. à proximité